Location: Anuling
(14.1239°N, 120.8922°E)
Time: 13:29:53
(UTC+00:00)

Cosmos 2218 Rocket - Pass Details

Date: 11 April 2026
Orbit: 955 x 1005 km, 82.9° (Epoch: 11 May)

Event Time Altitude Azimuth Distance (km) Brightness Sun altitude
Exits shadow 13:07:21 15° 346° (NNW) 2,345 6.3 -42.1°
Drops below altitude 10° 13:08:18 10° 349° (N) 2,682 6.6 -42.4°
Sets 13:10:52 0° 355° (N) 3,626 7.3 -42.9°
